GW2092 Weather Reports


time (UTC)temp
C
wind
direction
speed
KPH
gust
KPH
rain 1hr
cm
rain 24hr
cm
rain mn
cm
humidity
%
barometer
mb
20260903230047 36 0 0.0 9.7 0.00 0.00 0.00 42 1012.9
20260903224544 37 69 1.6 9.7 0.00 0.00 0.00 39 1012.8
20260903223056 37 124 1.6 12.9 0.00 0.00 0.00 39 1012.8
20260903221548 37 233 3.2 11.3 0.00 0.00 0.00 39 1012.6
20260903220059 38 213 3.2 11.3 0.00 0.00 0.00 38 1012.8
20260903214553 37 219 0.0 12.9 0.00 0.00 0.00 39 1013.0
20260903213049 38 155 1.6 9.7 0.00 0.00 0.00 38 1013.1
20260903211547 38 103 0.0 9.7 0.00 0.00 0.00 37 1013.2
20260903210100 38 201 1.6 16.1 0.00 0.00 0.00 37 1013.3
20260903204548 38 226 3.2 9.7 0.00 0.00 0.00 37 1013.5
20260903203046 38 118 1.6 11.3 0.00 0.00 0.00 37 1013.6
20260903201556 38 0 0.0 8.0 0.00 0.00 0.00 38 1013.7
20260903200058 37 173 1.6 11.3 0.00 0.00 0.00 40 1013.8
20260903194552 37 0 1.6 9.7 0.00 0.00 0.00 40 1013.9
20260903193104 37 134 1.6 6.4 0.00 0.00 0.00 39 1014.1
20260903191554 37 74 1.6 8.0 0.00 0.00 0.00 40 1014.4
20260903190054 37 235 0.0 8.0 0.00 0.00 0.00 41 1014.5
20260903184547 37 226 1.6 12.9 0.00 0.00 0.00 42 1014.9
20260903183056 37 232 1.6 6.4 0.00 0.00 0.00 41 1015.0
20260903181553 37 246 1.6 8.0 0.00 0.00 0.00 42 1015.1
20260903180053 36 283 1.6 9.7 0.00 0.00 0.00 44 1015.3
20260903174547 36 212 0.0 6.4 0.00 0.00 0.00 45 1015.6
20260903173055 36 138 1.6 9.7 0.00 0.00 0.00 45 1015.7
20260903171600 35 204 0.0 14.5 0.00 0.00 0.00 46 1015.9
20260903170046 35 127 1.6 9.7 0.00 0.00 0.00 48 1015.9
20260903164554 34 192 1.6 16.1 0.00 0.00 0.00 49 1016.0
20260903163052 34 208 0.0 11.3 0.00 0.00 0.00 51 1016.3
20260903161549 33 167 0.0 12.9 0.00 0.00 0.00 50 1016.5
20260903160057 33 130 1.6 9.7 0.00 0.00 0.00 52 1016.6
20260903154554 33 122 0.0 9.7 0.00 0.00 0.00 53 1016.6
20260903153049 32 180 3.2 11.3 0.00 0.00 0.00 55 1016.7
20260903151607 32 0 0.0 11.3 0.00 0.00 0.00 57 1016.8
20260903144549 30 150 3.2 11.3 0.00 0.00 0.00 62 1016.7
20260903143102 30 183 1.6 8.0 0.00 0.00 0.00 64 1016.8
20260903141555 28 154 1.6 9.7 0.00 0.00 0.00 67 1017.0
20260903140055 27 139 1.6 9.7 0.00 0.00 0.00 69 1017.2
20260903134553 27 194 0.0 4.8 0.00 0.00 0.00 72 1017.3
20260903133059 26 107 0.0 6.4 0.00 0.00 0.00 75 1017.2
20260903131556 25 219 0.0 6.4 0.00 0.00 0.00 77 1016.8
20260903130057 25 0 0.0 6.4 0.00 0.00 0.00 79 1016.8
20260903124549 24 115 0.0 3.2 0.00 0.00 0.00 80 1016.7
20260903123046 23 198 0.0 3.2 0.00 0.00 0.00 83 1016.7
20260903121554 22 0 0.0 0.0 0.00 0.00 0.00 85 1016.7
20260903120055 22 0 0.0 1.6 0.00 0.00 0.00 86 1016.7
20260903114548 21 0 0.0 0.0 0.00 0.00 0.00 84 1016.6
20260903113046 22 0 0.0 0.0 0.00 0.00 0.00 84 1016.6
20260903111545 22 0 0.0 0.0 0.00 0.00 0.00 83 1016.5
20260903110047 22 0 0.0 0.0 0.00 0.00 0.00 84 1016.6
20260903104550 22 0 0.0 0.0 0.00 0.00 0.00 82 1016.5
20260903103048 22 0 0.0 0.0 0.00 0.00 0.00 82 1016.4
20260903101546 22 0 0.0 0.0 0.00 0.00 0.00 82 1016.5
20260903100045 22 0 0.0 0.0 0.00 0.00 0.00 80 1016.5
20260903094559 22 0 0.0 0.0 0.00 0.00 0.00 80 1016.4
20260903093054 23 0 0.0 0.0 0.00 0.00 0.00 78 1016.4
20260903091556 23 0 0.0 0.0 0.00 0.00 0.00 78 1016.3
20260903090053 23 0 0.0 0.0 0.00 0.00 0.00 76 1016.3
20260903084548 24 0 0.0 0.0 0.00 0.00 0.00 75 1016.3
20260903083046 25 0 0.0 1.6 0.00 0.00 0.00 74 1016.2
20260903081555 25 0 0.0 0.0 0.00 0.00 0.00 73 1016.1
20260903080054 25 0 0.0 0.0 0.00 0.00 0.00 72 1015.9
20260903074547 25 0 0.0 1.6 0.00 0.00 0.00 72 1015.8
20260903073057 25 131 0.0 1.6 0.00 0.00 0.00 73 1015.8
20260903071553 25 0 0.0 0.0 0.00 0.00 0.00 72 1015.9
20260903070047 25 0 0.0 1.6 0.00 0.00 0.00 71 1015.9
20260903064545 26 0 0.0 1.6 0.00 0.00 0.00 70 1015.7
20260903063052 26 0 0.0 1.6 0.00 0.00 0.00 69 1015.7
20260903061550 26 0 0.0 0.0 0.00 0.00 0.00 68 1015.5
20260903060047 26 0 0.0 0.0 0.00 0.00 0.00 68 1015.6
20260903054553 27 162 0.0 3.2 0.00 0.00 0.00 67 1015.4
20260903053046 27 0 0.0 0.0 0.00 0.00 0.00 66 1015.4
20260903051551 27 0 0.0 1.6 0.00 0.00 0.00 66 1015.7
20260903050055 27 0 0.0 1.6 0.00 0.00 0.00 66 1015.6
20260903044550 27 0 0.0 1.6 0.00 0.00 0.00 65 1015.6
20260903043047 27 0 0.0 1.6 0.00 0.00 0.00 65 1015.6
20260903041554 27 145 0.0 1.6 0.00 0.00 0.00 64 1015.6
20260903040053 27 0 0.0 1.6 0.00 0.00 0.00 64 1015.6
20260903034548 27 0 0.0 1.6 0.00 0.00 0.00 62 1015.7
20260903033055 27 0 0.0 0.0 0.00 0.00 0.00 61 1015.7
20260903031557 28 0 0.0 0.0 0.00 0.00 0.00 59 1015.6
20260903030047 28 144 0.0 1.6 0.00 0.00 0.00 58 1015.5
20260903024548 28 0 0.0 0.0 0.00 0.00 0.00 57 1015.3
20260903023102 28 0 0.0 0.0 0.00 0.00 0.00 57 1015.0
20260903021549 28 0 0.0 0.0 0.00 0.00 0.00 57 1014.7
20260903020050 29 0 0.0 0.0 0.00 0.00 0.00 57 1014.5
20260903014549 29 0 0.0 0.0 0.00 0.00 0.00 55 1014.4
20260903013057 30 0 0.0 0.0 0.00 0.00 0.00 54 1014.1
20260903011544 30 0 0.0 0.0 0.00 0.00 0.00 53 1014.1
20260903010051 31 0 0.0 0.0 0.00 0.00 0.00 50 1014.0
20260903004546 32 0 0.0 0.0 0.00 0.00 0.00 46 1013.9
20260903003055 33 0 0.0 0.0 0.00 0.00 0.00 44 1013.9
20260903001549 34 0 0.0 0.0 0.00 0.00 0.00 43 1013.9
20260903000056 35 199 0.0 1.6 0.00 0.00 0.00 41 1013.9
20260902234555 35 0 0.0 4.8 0.00 0.00 0.00 40 1013.9
20260902233052 36 0 0.0 6.4 0.00 0.00 0.00 39 1013.9
20260902231558 36 173 0.0 6.4 0.00 0.00 0.00 37 1014.0